Location: Schommer Observatory
(40.5200°N, 74.4500°W)
Time: 03:01:57
(UTC-04:00)

Tiangong 1 - Visible Passes

Search period start: 21 September 2017 00:00
Search period end: 01 October 2017 00:00
Orbit: 304 x 329 km, 42.8° (Epoch: 20 September)

Date Brightness Start Highest point End Pass type
(mag) Time Alt. Az. Time Alt. Az. Time Alt. Az.
21 Sep 1.1 05:30:02 33° NW 05:30:55 54° N 05:33:34 10° E visible
22 Sep 0.6 05:43:13 24° WNW 05:44:38 80° NNE 05:47:19 10° ESE visible
23 Sep 4.4 04:25:33 10° E 04:25:33 10° E 04:25:34 10° E visible
23 Sep 0.8 05:56:23 17° W 05:58:12 54° SSW 06:00:49 10° ESE visible
24 Sep 3.9 04:38:43 14° E 04:38:43 14° E 04:39:09 10° E visible
24 Sep 2.0 06:09:33 12° W 06:11:33 25° SSW 06:13:50 10° SSE visible
25 Sep 3.5 04:51:55 15° ESE 04:51:55 15° ESE 04:52:32 10° ESE visible
26 Sep 3.5 05:05:10 12° SE 05:05:10 12° SE 05:05:30 10° SE visible
